Weather History for Mount Shasta, CA

Change the Weather History Date:

Thursday, February 27, 2014

  Actual Average Record
Temperature  
Mean Temperature 40 °F 40 °F  
Max Temperature 47 °F 51 °F 71 °F (1953)
Min Temperature 33 °F 29 °F 3 °F (1962)
Degree Days  
Heating Degree Days 25 25  
Month to date heating degree days 651 724  
Since 1 July heating degree days 3593 3950  
Cooling Degree Days 0 0  
Month to date cooling degree days 0 0  
Year to date cooling degree days 0 0  
Moisture  
Dew Point 35 °F    
Average Humidity 90    
Maximum Humidity 96    
Minimum Humidity 76    
Precipitation  
Precipitation 0.96 in 0.27 in 2.44 in (2006)
Month to date precipitation 5.69 6.96  
Year to date precipitation 5.90 14.02  
Sea Level Pressure  
Sea Level Pressure 29.74 in    
Wind  
Wind Speed 2 mph (SE)    
Max Wind Speed 8 mph    
Max Gust Speed 13 mph    
Visibility 6 miles    
Events Rain , Snow    
T = Trace of Precipitation, MM = Missing Value Source: NWS Daily Summary

Daily Weather History Graph

Daily Weather History Graph

Search for Another Location

Airport:

Trip Planner

Search our weather history database for the weather conditions in past years. The results will help you decide how hot, cold, wet, or windy it might be!

Date:

Astronomy

Feb. 27, 2014 Rise Set
Actual Time 6:46 AM PST 5:57 PM PST
Civil Twilight 6:18 AM PST 6:25 PM PST
Nautical Twilight 5:46 AM PST 6:57 PM PST
Astronomical Twilight 5:14 AM PST 7:29 PM PST
Moon 5:23 AM PST (2/27) 4:29 PM PST (2/27)
Length of Visible Light 12h 06m
Length of Day
11h 11m
Waning Crescent, 3% of the Moon is Illuminated
Feb 27
Waning Crescent
Mar 1
New
Mar 8
First Quarter
Mar 16
Full
Mar 23
Last Quarter

Hourly Weather History & Observations

Time (PST) Temp. Windchill Dew Point Humidity Pressure Visibility Wind Dir Wind Speed Gust Speed Precip Events Conditions
12:06 AM 34.0 °F - 32.0 °F 92% 29.68 in 2.5 mi Calm Calm - 0.06 in Snow Light Snow
12:21 AM 33.1 °F - 30.9 °F 92% 29.68 in 1.8 mi Calm Calm - 0.14 in Snow Light Snow
12:29 AM 34.0 °F - 30.9 °F 89% 29.69 in 2.5 mi Calm Calm - 0.19 in Snow Light Snow
12:37 AM 33.1 °F - 30.9 °F 92% 29.70 in 1.5 mi Calm Calm - 0.24 in Snow Light Snow
12:45 AM 33.1 °F 26.1 °F 30.9 °F 92% 29.66 in 1.0 mi ENE 8.1 mph - 0.28 in Snow Light Snow
12:52 AM 33.8 °F 30.8 °F 30.2 °F 87% 29.66 in 2.0 mi West 3.5 mph - 0.34 in Snow Light Snow
12:56 AM 33.1 °F 30.0 °F 30.9 °F 92% 29.71 in 4.0 mi West 3.5 mph - 0.34 in Rain Light Rain
1:29 AM 33.1 °F - 30.9 °F 92% 29.65 in 3.0 mi Calm Calm - 0.01 in Rain Light Rain
1:56 AM 33.1 °F - 30.9 °F 92% 29.72 in 10.0 mi Calm Calm - 0.02 in   Overcast
2:31 AM 34.0 °F - 30.9 °F 89% 29.67 in 8.0 mi Calm Calm - 0.01 in Rain Light Rain
2:56 AM 34.0 °F - 32.0 °F 92% 29.74 in 9.0 mi Calm Calm - 0.03 in Rain Light Rain
3:17 AM 34.0 °F - 30.9 °F 89% 29.68 in 9.0 mi Calm Calm - 0.00 in   Overcast
3:34 AM 33.1 °F - 30.9 °F 92% 29.67 in 1.8 mi Calm Calm - 0.00 in   Overcast
3:42 AM 33.1 °F - 30.9 °F 92% 29.67 in 0.8 mi Calm Calm - 0.00 in   Overcast
3:56 AM 34.0 °F 31.0 °F 30.9 °F 89% 29.74 in 1.0 mi NE 3.5 mph - 0.00 in   Mist
4:01 AM 34.0 °F - 30.9 °F 89% 29.68 in 2.0 mi Calm Calm - N/A   Overcast
4:25 AM 34.0 °F - 30.9 °F 89% 29.68 in 1.8 mi Calm Calm - N/A   Overcast
4:37 AM 33.1 °F - 32.0 °F 96% 29.69 in 3.0 mi Calm Calm - N/A   Overcast
4:56 AM 33.1 °F - 30.9 °F 92% 29.75 in 2.0 mi Calm Calm - N/A   Overcast
4:58 AM 33.1 °F - 30.9 °F 92% 29.68 in 1.2 mi Calm Calm - N/A   Overcast
5:10 AM 33.1 °F - 30.9 °F 92% 29.68 in 0.8 mi Calm Calm - N/A   Mist
5:29 AM 33.1 °F - 30.9 °F 92% 29.68 in 1.0 mi Calm Calm - N/A   Overcast
5:32 AM 34.0 °F - 32.0 °F 92% 29.68 in 2.0 mi Calm Calm - N/A   Overcast
5:37 AM 34.0 °F - 32.0 °F 92% 29.69 in 6.0 mi Calm Calm - 0.00 in Rain Light Rain
5:56 AM 34.0 °F - 32.0 °F 92% 29.76 in 8.0 mi Calm Calm - 0.00 in   Overcast
6:56 AM 36.0 °F - 34.0 °F 93% 29.76 in 7.0 mi Calm Calm - 0.01 in Rain Light Rain
7:56 AM 37.0 °F 34.5 °F 34.0 °F 89% 29.78 in 5.0 mi ESE 3.5 mph - 0.07 in Rain Light Rain
8:56 AM 37.0 °F 34.5 °F 34.0 °F 89% 29.81 in 3.0 mi SE 3.5 mph - 0.12 in Rain Rain
9:06 AM 37.0 °F - 34.0 °F 89% 29.74 in 2.5 mi Calm Calm - 0.04 in Rain Heavy Rain
9:20 AM 37.0 °F - 34.0 °F 89% 29.74 in 3.0 mi Calm Calm - 0.09 in Rain Rain
9:56 AM 36.0 °F - 34.0 °F 93% 29.83 in 3.0 mi Calm Calm - 0.17 in Rain Rain
10:06 AM 36.0 °F - 35.1 °F 97% 29.75 in 2.5 mi Calm Calm - 0.02 in Rain Rain
10:16 AM 39.0 °F - 36.0 °F 89% 29.75 in 4.0 mi Calm Calm - 0.04 in Rain Rain
10:56 AM 39.9 °F 37.8 °F 37.9 °F 93% 29.81 in 8.0 mi South 3.5 mph - 0.08 in Rain Light Rain
11:08 AM 39.0 °F 35.7 °F 37.0 °F 93% 29.74 in 6.0 mi SSW 4.6 mph - 0.00 in Rain Light Rain
11:27 AM 39.0 °F 36.8 °F 37.0 °F 93% 29.75 in 6.0 mi SSW 3.5 mph - 0.00 in   Overcast
11:56 AM 39.9 °F 37.8 °F 37.9 °F 93% 29.83 in 5.0 mi South 3.5 mph - 0.00 in   Overcast
12:12 PM 41.0 °F - 39.0 °F 93% 29.75 in 2.5 mi Calm Calm - 0.01 in   Overcast
12:19 PM 41.0 °F - 39.0 °F 93% 29.75 in 4.0 mi Calm Calm - 0.01 in   Overcast
12:40 PM 43.0 °F - 41.0 °F 93% 29.74 in 6.0 mi Calm Calm - 0.01 in   Overcast
12:56 PM 45.0 °F - 41.0 °F 86% 29.81 in 10.0 mi Calm Calm - 0.01 in   Overcast
1:56 PM 45.0 °F 43.5 °F 41.0 °F 86% 29.82 in 5.0 mi SE 3.5 mph - 0.01 in Rain Light Rain
2:18 PM 46.9 °F - 42.1 °F 83% 29.75 in 10.0 mi Variable 3.5 mph - 0.02 in   Mostly Cloudy
2:53 PM 46.4 °F 44.3 °F 42.8 °F 87% 29.75 in 9.0 mi East 4.6 mph - 0.02 in   Overcast
2:56 PM 46.0 °F 43.9 °F 41.0 °F 83% 29.82 in 8.0 mi Variable 4.6 mph - 0.02 in Rain Light Rain
3:56 PM 46.0 °F - 42.1 °F 86% 29.81 in 10.0 mi Calm Calm - 0.02 in Rain Light Rain
4:56 PM 45.0 °F - 41.0 °F 86% 29.82 in 10.0 mi Calm Calm - 0.00 in   Mostly Cloudy
5:56 PM 44.1 °F 42.5 °F 37.9 °F 79% 29.82 in 10.0 mi ESE 3.5 mph - 0.01 in   Overcast
6:56 PM 43.0 °F 41.3 °F 39.9 °F 89% 29.83 in 8.0 mi ESE 3.5 mph - 0.01 in Rain Light Rain
7:23 PM 43.0 °F - 39.9 °F 89% 29.75 in 10.0 mi North - - 0.01 in Rain Light Rain
7:56 PM 43.0 °F 41.3 °F 39.0 °F 86% 29.82 in 8.0 mi SE 3.5 mph - 0.01 in Rain Light Rain
8:56 PM 42.1 °F 40.2 °F 37.9 °F 85% 29.81 in 10.0 mi ESE 3.5 mph - 0.03 in Rain Light Rain
9:56 PM 42.1 °F - 37.9 °F 85% 29.81 in 10.0 mi Calm Calm - 0.01 in   Overcast
10:03 PM 42.1 °F - 37.9 °F 85% 29.73 in 10.0 mi Calm Calm - N/A   Overcast
10:56 PM 42.1 °F - 37.9 °F 85% 29.77 in 10.0 mi Calm Calm - N/A   Overcast
11:03 PM 42.1 °F - 37.9 °F 85% 29.71 in 10.0 mi Calm Calm - N/A   Overcast
11:23 PM 42.1 °F - 37.9 °F 85% 29.70 in 10.0 mi Calm Calm - N/A   Overcast
11:56 PM 41.0 °F - 37.0 °F 86% 29.76 in 10.0 mi Calm Calm - N/A   Mostly Cloudy